STARLINK-1036 (44741 NORAD) Tracking and Keplerian Element Data

This shows tracking and keplerian element data for the satellite.

Feedback or suggestion? Click here.




ElementValue
Catalog44741
NameSTARLINK-1036
Epoch Orbit161
Epoch Day93.91667824
Epoch Year2020
RAAN213.6399
Inclination52.9989
Eccentricity0.0001275
Argument of Perigee103.2637
Mean Anonmoly63.1072
Mean Motion15.05594371
Decay Rate-0.00017023
L11 44741U 19074AE 20093.91667824 -.00017023 00000-0 -11515-2 0 9998
L22 44741 52.9989 213.6399 0001275 103.2637 63.1072 15.05594371 1611

Live tracking and technical data element details for STARLINK-1036 (NORAD 44741). STARLINK-1036 can be tracked NOW for your location showing map with azimuth and elevation plus other details from your city location.

Track the satellite on the map from your city or location and see movement details for azimuth, elevation, latitude, longitude, range, height, and movement on the map or in text.







IsCatalogInMostPopularTable: catalog: 44741, numindb: 44
Update: records affected: 1



GetName: 44741 STARLINK-1036

Hit Count: updated at: Fri, 03 Apr 2020 22:43:23 GMT